Tracking 28799 objects as of 18-Apr-2024
HD Live streaming from Space Station
objects crossing your sky now

STARLINK-5115

Track STARLINK-5115 now!
10-day predictions
STARLINK-5115 is classified as:


NORAD ID: 53989
Int'l Code: 2022-125AB
Perigee: 545.9 km
Apogee: 547.9 km
Inclination: 53.2 °
Period: 95.4 minutes
Semi major axis: 6917 km
RCS: Unknown
Launch date: October 5, 2022
Source: United States (US)
Launch site: AIR FORCE WESTERN TEST RANGE (AFWTR)
Your satellite tracking list
Your tracking list is empty




NASA's NSSDC Master Catalog

Two Line Element Set (TLE):
1 53989U 22125AB  24109.15137137  .00000240  00000-0  33178-4 0  9992
2 53989  53.2169  74.1400 0001493 124.9229 235.1903 15.08836533 85282
Source of the keplerian elements: AFSPC